DERAJ36 LZSV-UMBB

Flight info

Callsign DERAJ36
Flight time N/A
Altitude FL110
Route UDREL P27 DUFES M857 OBOSO L999 BIGLU
Aircraft BE36/L-BDFGLORY/S

Departure

Time 2026-04-24 16:35
Airport Spišská Nová Ves Airfield (LZSV)

Arrival

Time N/A
Airport Brest International Airport (UMBB)
Time Latitude Longitude Altitude Speed Heading
2026-04-24 16:32 48.93754 20.54110 1599 ft 0 kts 345°
2026-04-24 16:32 48.93771 20.54110 1599 ft 12 kts 24°
2026-04-24 16:33 48.93823 20.54142 1597 ft 0 kts 300°
2026-04-24 16:33 48.93842 20.54095 1598 ft 26 kts 302°
2026-04-24 16:33 48.94026 20.53571 1613 ft 74 kts 292°
2026-04-24 16:33 48.94306 20.52752 1610 ft 94 kts 294°
2026-04-24 16:34 48.94592 20.51891 1759 ft 84 kts 277°
2026-04-24 16:34 48.94592 20.51025 1882 ft 77 kts 259°
2026-04-24 16:34 48.94618 20.50249 2014 ft 76 kts 284°
2026-04-24 16:34 48.94865 20.49505 2074 ft 84 kts 295°
2026-04-24 16:35 48.95417 20.48946 2119 ft 111 kts 339°
2026-04-24 16:35 48.96191 20.49171 2455 ft 120 kts 24°
2026-04-24 16:35 48.96723 20.50172 2803 ft 122 kts 59°
2026-04-24 16:35 48.97006 20.51392 3043 ft 123 kts 69°
2026-04-24 16:36 48.97225 20.52684 3250 ft 127 kts 72°
2026-04-24 16:36 48.97415 20.53995 3464 ft 129 kts 74°
2026-04-24 16:36 48.97593 20.55350 3701 ft 128 kts 74°
2026-04-24 16:36 48.97766 20.56712 3940 ft 128 kts 75°
2026-04-24 16:37 48.97933 20.58055 4184 ft 127 kts 75°
2026-04-24 16:37 48.98096 20.59378 4425 ft 126 kts 75°
2026-04-24 16:37 48.98206 20.60275 4586 ft 126 kts 75°
2026-04-24 16:37 48.98420 20.62028 4885 ft 126 kts 74°
2026-04-24 16:38 48.98578 20.63321 5101 ft 125 kts 74°
2026-04-24 16:38 48.98736 20.64611 5320 ft 125 kts 75°
2026-04-24 16:38 48.98894 20.65906 5540 ft 124 kts 74°
2026-04-24 16:38 48.99050 20.67192 5748 ft 125 kts 75°
2026-04-24 16:39 48.99208 20.68479 5992 ft 124 kts 74°
2026-04-24 16:39 48.99362 20.69756 6223 ft 124 kts 74°
2026-04-24 16:39 48.99518 20.71035 6452 ft 124 kts 74°
2026-04-24 16:39 48.99676 20.72347 6670 ft 125 kts 74°
2026-04-24 16:40 48.99838 20.73680 6884 ft 126 kts 74°
2026-04-24 16:40 49.00002 20.75040 7087 ft 127 kts 73°
2026-04-24 16:40 49.00165 20.76399 7293 ft 128 kts 73°
2026-04-24 16:40 49.00330 20.77761 7487 ft 129 kts 73°
2026-04-24 16:41 49.00489 20.79098 7695 ft 130 kts 72°
2026-04-24 16:41 49.00653 20.80440 7903 ft 130 kts 73°
2026-04-24 16:41 49.00817 20.81808 8088 ft 131 kts 72°
2026-04-24 16:41 49.01190 20.83002 8270 ft 124 kts 46°
2026-04-24 16:42 49.01733 20.84016 8446 ft 124 kts 40°
2026-04-24 16:42 49.02314 20.84988 8634 ft 124 kts 38°
2026-04-24 16:42 49.02917 20.85939 8811 ft 125 kts 37°
2026-04-24 16:42 49.03527 20.86876 8997 ft 125 kts 36°
2026-04-24 16:43 49.04140 20.87803 9180 ft 125 kts 35°
2026-04-24 16:43 49.04757 20.88733 9374 ft 124 kts 35°
2026-04-24 16:43 49.05384 20.89671 9550 ft 125 kts 34°
2026-04-24 16:43 49.06009 20.90609 9724 ft 125 kts 34°
2026-04-24 16:44 49.06659 20.91581 9899 ft 126 kts 34°
2026-04-24 16:44 49.07303 20.92545 10073 ft 126 kts 33°
2026-04-24 16:44 49.07941 20.93500 10247 ft 127 kts 33°
2026-04-24 16:44 49.08578 20.94450 10403 ft 127 kts 34°
2026-04-24 16:45 49.09210 20.95393 10572 ft 127 kts 34°
2026-04-24 16:45 49.09861 20.96371 10736 ft 128 kts 34°
2026-04-24 16:45 49.10511 20.97344 10902 ft 128 kts 34°
2026-04-24 16:45 49.11163 20.98318 10978 ft 135 kts 34°
2026-04-24 16:46 49.11875 20.99379 10991 ft 146 kts 35°
2026-04-24 16:46 49.12620 21.00499 10991 ft 154 kts 36°
2026-04-24 16:46 49.13404 21.01684 11002 ft 159 kts 36°
2026-04-24 16:46 49.14200 21.02882 10998 ft 163 kts 36°
2026-04-24 16:47 49.15014 21.04110 10994 ft 165 kts 37°
2026-04-24 16:47 49.15833 21.05343 10988 ft 167 kts 37°
2026-04-24 16:47 49.16665 21.06598 10984 ft 168 kts 36°
2026-04-24 16:47 49.17495 21.07847 10981 ft 168 kts 37°
2026-04-24 16:48 49.18326 21.09101 10980 ft 169 kts 37°
2026-04-24 16:48 49.19162 21.10358 10983 ft 170 kts 37°
2026-04-24 16:48 49.20004 21.11627 10985 ft 171 kts 37°
2026-04-24 16:48 49.20862 21.12923 10985 ft 171 kts 37°
2026-04-24 16:49 49.21706 21.14196 10985 ft 171 kts 37°
2026-04-24 16:49 49.22568 21.15497 10985 ft 171 kts 37°
2026-04-24 16:49 49.23407 21.16763 10987 ft 171 kts 37°
2026-04-24 16:49 49.24247 21.18032 10989 ft 170 kts 37°
2026-04-24 16:50 49.24807 21.18877 10992 ft 170 kts 37°
2026-04-24 16:50 49.25929 21.20573 10993 ft 170 kts 37°
2026-04-24 16:50 49.26770 21.21847 10991 ft 170 kts 37°
2026-04-24 16:50 49.27606 21.23114 10987 ft 170 kts 37°
2026-04-24 16:51 49.28443 21.24378 10994 ft 170 kts 37°
2026-04-24 16:51 49.29285 21.25653 10994 ft 170 kts 37°
2026-04-24 16:51 49.30123 21.26926 10993 ft 170 kts 37°
2026-04-24 16:51 49.30962 21.28200 10992 ft 170 kts 37°
2026-04-24 16:52 49.31806 21.29483 10991 ft 171 kts 37°
2026-04-24 16:52 49.32640 21.30748 10991 ft 171 kts 37°
2026-04-24 16:52 49.33490 21.32042 10992 ft 170 kts 37°
2026-04-24 16:52 49.34326 21.33314 10991 ft 170 kts 37°
2026-04-24 16:53 49.35157 21.34575 10992 ft 170 kts 37°
2026-04-24 16:53 49.35996 21.35853 10994 ft 170 kts 37°
2026-04-24 16:53 49.36836 21.37130 10994 ft 170 kts 37°
2026-04-24 16:53 49.37668 21.38398 10996 ft 170 kts 37°
2026-04-24 16:54 49.38507 21.39677 10992 ft 170 kts 37°
2026-04-24 16:54 49.39337 21.40943 10993 ft 170 kts 37°
2026-04-24 16:54 49.40179 21.42229 10997 ft 170 kts 37°
2026-04-24 16:54 49.41019 21.43480 10993 ft 168 kts 30°
2026-04-24 16:55 49.42052 21.44066 11002 ft 159 kts
2026-04-24 16:55 49.43141 21.44378 10997 ft 160 kts
2026-04-24 16:55 49.44242 21.44675 10996 ft 159 kts
2026-04-24 16:55 49.45327 21.44967 11000 ft 159 kts
2026-04-24 16:56 49.46422 21.45256 10998 ft 159 kts
2026-04-24 16:56 49.47504 21.45541 10999 ft 159 kts
2026-04-24 16:56 49.48603 21.45832 11000 ft 159 kts
2026-04-24 16:56 49.49691 21.46119 10999 ft 159 kts
2026-04-24 16:57 49.50777 21.46403 10997 ft 159 kts
2026-04-24 16:57 49.51867 21.46689 10997 ft 160 kts
2026-04-24 16:57 49.52970 21.46981 10994 ft 160 kts
2026-04-24 16:57 49.54057 21.47267 10995 ft 160 kts
2026-04-24 16:58 49.55154 21.47557 10995 ft 160 kts
2026-04-24 16:58 49.56239 21.47845 10995 ft 159 kts
2026-04-24 16:58 49.57329 21.48131 10996 ft 159 kts
2026-04-24 16:58 49.58411 21.48416 10997 ft 160 kts
2026-04-24 16:59 49.59499 21.48702 10996 ft 160 kts
2026-04-24 16:59 49.60586 21.48991 10997 ft 160 kts
2026-04-24 16:59 49.62769 21.49568 10998 ft 159 kts
2026-04-24 17:00 49.63858 21.49853 10999 ft 160 kts
2026-04-24 17:00 49.66047 21.50432 10999 ft 160 kts
2026-04-24 17:00 49.67131 21.50719 10996 ft 160 kts
2026-04-24 17:01 49.69307 21.51296 10995 ft 160 kts
2026-04-24 17:01 49.70410 21.51587 10994 ft 161 kts
2026-04-24 17:02 49.72224 21.52068 10994 ft 161 kts
2026-04-24 17:02 49.73692 21.52459 10991 ft 160 kts
2026-04-24 17:02 49.74795 21.52753 10994 ft 160 kts
2026-04-24 17:02 49.75879 21.53039 10992 ft 160 kts
2026-04-24 17:03 49.78062 21.53620 10994 ft 160 kts
2026-04-24 17:03 49.79168 21.53913 10995 ft 160 kts
2026-04-24 17:03 49.80258 21.54204 10994 ft 161 kts
2026-04-24 17:04 49.81354 21.54493 10991 ft 161 kts
2026-04-24 17:04 49.83563 21.55082 10989 ft 160 kts
2026-04-24 17:04 49.84654 21.55374 10993 ft 160 kts
2026-04-24 17:05 49.85743 21.55666 10990 ft 160 kts
2026-04-24 17:05 49.86830 21.55955 10992 ft 160 kts
2026-04-24 17:05 49.89017 21.56539 10991 ft 160 kts
2026-04-24 17:06 49.90116 21.56834 10991 ft 161 kts
2026-04-24 17:06 49.92305 21.57419 10989 ft 161 kts
2026-04-24 17:06 49.93402 21.57714 10993 ft 160 kts
2026-04-24 17:07 49.94122 21.57904 10993 ft 161 kts
2026-04-24 17:07 49.95576 21.58294 10999 ft 161 kts
2026-04-24 17:07 49.97777 21.58882 10999 ft 161 kts
2026-04-24 17:08 49.99965 21.59468 10996 ft 161 kts
2026-04-24 17:08 50.01071 21.59766 10995 ft 161 kts
2026-04-24 17:08 50.02156 21.60058 10995 ft 161 kts
2026-04-24 17:09 50.04354 21.60650 10996 ft 161 kts
2026-04-24 17:09 50.06538 21.61237 10996 ft 161 kts
2026-04-24 17:10 50.07639 21.61534 11001 ft 161 kts
2026-04-24 17:10 50.10993 21.62435 11013 ft 162 kts
2026-04-24 17:11 50.14319 21.63333 11001 ft 161 kts
2026-04-24 17:12 50.19823 21.64821 11003 ft 163 kts